RH
32 37 41 46 43 43 50 47 30 10 22 24 24 24 20 21 24 25 25 28 26 34 41 46 56 59 63 62 62 60 57 59 53 54 54 61 66 73 77 76 83 100 94 59
28 37 41 47 45 36 46 52 46 13 10 20 27 28 32 35 38 40 43 43 45 45 50 55 54 54 54 52 51 52 48 54 46 64 65 62 72 63 73 83 84 91 91 48
27 40 38 43 38 30 48 51 54 46 13 12 18 31 32 34 36 38 42 45 48 51 51 46 43 42 37 32 31 35 40 40 35 26 34 47 50 42 55 78 95 86 68 29
29 40 46 40 38 32 46 55 61 60 50 24 15 15 20 30 32 30 32 33 35 36 35 32 29 26 25 25 27 31 39 36 30 25 26 31 29 28 35 47 38 81 22 26
38 47 51 44 41 39 36 51 60 65 65 62 30 18 15 18 22 24 21 21 23 23 21 22 23 25 30 32 32 36 42 51 50 35 25 29 27 18 21 24 29 30 14 8
53 50 50 49 46 43 42 36 51 62 70 70 68 42 30 18 20 21 22 26 25 20 21 27 27 29 30 35 36 41 59 61 64 56 42 41 23 8 9 9 8 7 18 4
56 53 50 49 51 49 49 42 40 54 64 75 77 74 55 36 38 32 20 20 26 28 28 27 27 26 25 24 26 42 58 74 81 76 52 61 11 12 10 9 10 12 9 8
53 46 46 43 45 49 52 51 42 46 59 71 76 80 81 91 61 45 42 43 44 44 34 37 36 23 22 19 17 27 43 79 88 66 94 30 11 13 14 13 7 10 9 14
33 29 28 31 33 43 54 50 54 49 47 63 74 82 82 79 78 84 74 54 42 40 42 46 38 32 22 22 24 23 38 61 88 98 94 79 17 13 13 12 9 10 10 16
23 20 17 18 16 20 26 56 63 72 76 67 74 83 90 94 93 94 96 90 68 55 46 44 44 45 40 28 24 29 60 100 88 98 94 65 12 19 22 21 12 13 18 22
22 20 16 14 10 11 18 44 44 62 81 59 57 68 98 100 100 100 100 98 89 84 77 68 58 50 39 34 30 28 30 43 77 100 99 75 17 17 17 16 20 24 31 44
26 22 12 9 7 6 10 17 69 86 94 94 69 65 62 86 94 100 100 100 100 92 70 68 59 50 50 47 43 40 40 30 27 29 20 18 18 20 26 25 27 42 62 57
12 4 3 3 5 12 28 33 57 54 87 99 88 76 86 99 99 99 99 99 99 98 99 98 97 96 96 92 77 69 52 40 39 41 46 52 57 66 75 84 83 76 84 81
2 1 1 3 4 10 65 100 99 75 95 99 85 70 94 94 94 92 95 99 94 96 98 99 98 98 92 93 88 89 84 78 70 69 67 79 81 92 99 98 98 82 72 68
2 2 2 3 3 10 19 24 54 85 99 82 84 59 57 57 46 62 53 55 83 95 99 99 99 100 98 95 98 94 79 71 75 67 76 98 92 81 75 74 69 62 62 56
2 2 2 2 2 2 3 3 9 36 75 61 100 51 57 59 52 37 84 77 99 100 100 100 99 99 100 97 94 85 72 55 59 67 74 81 80 66 55 59 53 51 50 50
3 3 3 2 2 2 3 5 8 20 26 50 89 97 94 79 75 70 64 72 65 70 99 99 99 97 100 98 92 76 58 46 53 67 71 68 61 54 52 52 55 54 52 50
5 4 4 4 3 3 3 4 6 20 49 87 98 95 87 75 71 75 76 80 84 90 99 94 75 83 85 98 68 47 37 48 59 61 68 58 50 49 55 60 58 55 51 46
8 8 7 7 6 5 4 5 5 6 42 99 98 95 82 68 78 91 96 95 82 76 70 65 64 67 74 32 27 27 43 60 70 57 51 54 63 65 66 63 56 49 44 39
11 11 10 9 8 8 8 8 7 8 21 91 50 24 26 29 44 60 100 94 98 94 81 76 79 53 19 17 40 54 64 69 63 57 60 72 75 79 75 69 64 60 47 42
14 13 13 13 14 13 13 16 43 78 98 67 23 17 15 25 30 42 99 89 91 95 81 83 97 68 28 46 64 70 61 65 70 78 88 90 85 83 84 79 73 79 80 72
20 24 24 21 24 33 37 53 79 76 62 33 22 26 36 45 51 79 99 96 95 86 94 98 92 58 69 65 56 67 79 86 88 91 95 94 90 88 88 88 86 84 79 74
62 57 65 38 43 49 99 84 94 54 39 47 56 64 77 79 74 100 98 98 90 96 98 92 78 75 61 55 63 70 95 100 98 94 94 98 98 96 94 96 98 94 82 76
96 85 93 77 61 80 46 36 48 71 67 63 70 76 91 91 99 97 91 92 96 96 92 71 62 50 59 80 90 100 100 100 100 98 99 96 96 97 98 93 93 92 92 93
100 98 82 76 80 56 58 77 65 64 71 82 91 89 90 90 96 88 86 82 73 66 56 63 85 98 99 98 98 97 97 97 96 97 96 96 94 89 67 63 48 44 58 77
100 92 77 88 100 90 79 70 62 65 62 62 74 86 98 83 84 75 75 76 84 73 87 98 94 96 94 94 94 94 94 95 92 95 96 95 93 79 71 57 49 30 21 28
98 92 73 81 85 77 68 96 97 99 97 95 91 95 88 92 86 77 73 75 59 56 73 88 96 95 95 84 75 69 71 61 44 67 66 48 48 55 48 50 62 56 47 29
Wind_Speed
24 23 24 25 26 27 24 18 9 6 7 7 8 10 11 12 10 9 7 6 7 6 3 3 2 4 3 4 4 4 5 5 7 7 10 11 13 14 13 7 6 7 4 18
23 23 24 24 27 27 24 18 9 7 4 3 6 7 6 6 6 5 6 4 4 5 5 3 3 3 3 3 3 3 4 5 3 3 9 16 18 19 20 19 15 15 6 11
22 22 23 23 26 26 23 19 9 8 3 2 1 2 3 2 1 1 1 2 4 4 5 4 3 4 4 5 6 8 9 11 12 9 6 8 12 14 16 23 16 15 37 39
23 22 23 22 22 26 23 19 14 10 6 5 3 3 3 4 4 5 4 4 5 6 5 6 7 7 8 9 11 12 11 16 17 20 22 25 31 32 30 33 36 30 38 37
24 22 22 21 21 23 24 20 17 13 10 7 6 6 5 6 8 8 6 8 8 10 10 8 11 10 12 12 13 12 16 16 19 32 26 24 34 37 40 42 43 49 48 49
22 22 22 21 21 21 21 21 18 16 11 9 8 7 7 7 9 10 12 12 14 13 11 15 16 17 18 20 21 20 21 19 18 12 14 25 29 17 21 33 35 32 44 18
21 23 25 26 25 22 20 19 19 16 14 11 10 9 9 11 11 13 14 15 16 15 16 18 20 22 24 26 27 27 28 24 17 19 23 4 6 7 10 15 15 18 20 9
26 26 29 29 28 25 24 21 20 17 16 14 13 13 12 13 15 15 16 17 17 19 19 20 17 17 18 17 19 29 30 25 12 7 10 29 20 11 13 17 14 9 11 5
30 32 31 31 32 31 24 23 22 19 19 14 17 14 14 15 14 16 15 14 15 16 20 18 10 7 7 7 6 8 16 24 22 8 5 6 8 8 8 11 13 3 4 20
30 31 32 33 33 32 31 26 23 23 24 15 16 19 18 17 16 17 16 16 16 18 19 18 18 18 20 9 9 9 16 21 32 27 14 19 17 18 18 7 2 3 20 29
32 33 33 34 33 33 33 29 28 26 29 28 25 14 11 16 16 20 20 21 22 19 18 14 16 14 13 15 19 14 14 11 15 21 13 16 5 4 8 6 23 39 37 42
36 37 35 35 34 31 32 32 29 29 27 29 33 30 29 29 28 26 27 26 24 13 12 11 9 12 12 14 14 20 21 27 16 20 19 22 26 31 41 43 38 38 39 29
35 33 33 32 31 29 28 27 30 31 32 36 24 8 13 5 11 21 32 28 24 29 30 35 36 34 29 29 26 27 32 28 36 41 45 40 40 37 38 41 37 29 30 34
32 31 30 28 27 27 23 26 26 29 31 39 37 6 3 7 12 15 23 26 34 34 32 34 37 41 32 36 36 38 34 35 42 49 42 41 41 36 32 34 38 42 42 43
30 27 26 25 27 27 28 29 30 25 29 39 47 48 43 38 37 35 33 36 31 32 36 40 44 44 41 47 47 56 46 44 48 56 47 45 43 39 41 45 45 46 50 48
27 25 26 25 26 25 27 30 29 28 32 34 35 36 41 21 7 22 31 29 27 30 37 42 43 42 39 38 52 49 42 32 35 45 38 42 43 37 34 39 41 42 48 52
27 27 27 27 28 27 25 26 26 26 26 28 24 21 6 6 4 1 16 27 28 27 28 38 38 39 44 53 60 49 32 30 31 40 36 42 39 43 38 37 36 36 35 33
30 30 29 29 30 31 28 23 27 27 27 23 21 29 32 33 31 33 33 28 28 32 30 32 34 37 41 50 50 39 37 41 41 37 36 41 43 42 38 34 35 34 35 36
31 31 30 30 30 32 30 28 29 29 28 26 27 29 30 25 22 18 20 23 28 33 42 46 45 47 46 51 44 40 43 46 41 35 33 30 33 32 30 29 30 33 31 30
28 27 28 29 31 30 30 31 32 33 35 33 39 37 40 36 39 35 29 30 28 30 38 39 44 50 40 36 42 41 36 31 32 31 28 24 24 25 25 24 29 30 29 28
24 25 25 27 26 27 28 21 17 12 9 20 29 26 24 25 28 27 20 18 14 19 26 27 29 42 29 35 35 32 28 24 22 22 17 18 24 27 25 23 21 23 27 28
20 22 24 25 23 17 13 11 9 10 9 15 20 15 17 21 21 24 14 20 13 13 17 15 23 33 28 21 31 34 28 19 18 19 17 17 20 26 26 25 24 27 29 30
15 16 19 13 11 17 11 10 12 9 12 14 17 18 19 19 21 13 13 12 18 19 12 11 17 15 27 32 31 32 28 21 24 26 28 27 22 15 15 17 20 19 18 16
16 16 13 11 12 10 17 24 23 17 19 20 21 25 27 25 20 18 16 17 10 7 8 19 26 30 30 30 25 22 23 26 28 29 27 15 9 7 10 9 12 14 15 16
23 13 13 19 19 19 12 6 8 11 16 19 25 26 23 23 18 19 11 9 12 14 20 20 19 14 16 19 18 16 12 13 12 9 5 7 8 9 10 16 18 16 15 16
31 27 22 21 18 14 16 19 20 18 22 26 29 30 21 28 17 18 18 17 25 20 20 17 17 13 14 21 29 25 18 25 28 27 20 16 19 18 18 18 22 24 24 19
38 42 46 45 42 39 29 18 18 19 27 31 33 25 23 20 23 33 29 31 37 39 31 30 38 38 36 42 40 40 37 37 33 31 28 29 30 31 29 27 25 28 30 30
Wind_Direction
351 3 1 0 4 1 2 4 3 12 40 57 67 84 109 127 137 136 134 138 148 165 163 173 217 197 233 195 201 231 226 230 228 231 236 236 237 236 228 218 213 223 252 278
342 351 358 356 359 0 4 13 14 1 8 58 84 90 95 116 129 136 150 162 166 164 163 170 176 207 218 225 238 253 254 248 254 247 244 245 241 247 244 237 249 237 190 257
331 337 349 356 1 357 4 11 12 350 1 37 60 127 128 137 154 170 186 207 205 221 230 232 234 234 246 260 273 281 280 259 246 252 278 273 251 258 252 243 229 239 243 269
318 328 333 340 359 1 4 12 2 351 320 322 296 290 260 216 219 235 253 252 249 251 250 258 258 252 264 272 277 275 274 274 280 277 277 275 271 264 256 248 248 240 273 274
310 319 324 329 343 352 360 3 4 354 325 314 298 295 281 264 254 256 249 243 254 253 255 266 272 271 272 275 275 274 274 277 291 296 297 273 269 263 256 252 252 255 266 280
308 313 315 320 327 336 351 353 357 351 339 313 299 287 277 268 266 272 265 263 265 265 262 258 264 271 274 274 277 278 279 281 297 291 303 303 289 285 255 257 260 268 258 305
302 305 309 314 317 324 331 339 341 344 340 320 292 278 273 274 269 268 270 272 275 279 272 271 272 275 276 273 270 265 264 272 282 288 304 281 267 281 278 279 274 265 282 322
297 301 303 305 310 315 318 324 326 327 328 321 302 282 270 271 277 275 272 274 277 282 280 285 291 286 276 267 263 257 253 251 253 266 288 288 304 297 284 278 299 279 297 7
296 299 300 302 306 308 308 310 313 310 311 312 304 287 278 273 272 277 280 279 271 269 274 274 260 245 275 271 253 234 238 235 226 239 277 262 310 315 315 313 313 237 329 339
289 292 296 300 300 300 302 304 305 301 303 299 298 297 290 287 280 279 288 284 278 270 263 257 254 259 256 251 253 242 208 218 222 223 238 267 287 287 278 277 327 310 318 314
286 288 291 293 295 297 298 299 299 298 296 296 295 292 297 294 294 285 279 284 283 269 256 255 256 249 248 245 246 249 249 230 212 212 226 263 287 283 239 268 298 304 306 302
286 289 290 289 290 289 290 293 293 296 290 285 289 290 288 279 275 272 271 273 273 255 254 248 254 253 254 259 255 261 245 254 250 240 261 277 280 284 292 293 294 294 294 303
283 284 285 286 285 284 286 286 286 293 297 294 298 301 299 270 263 266 278 275 274 269 274 263 262 263 266 261 268 264 260 260 261 270 279 291 291 288 293 294 290 283 286 290
284 287 287 286 285 284 279 274 279 284 291 290 298 342 49 247 254 279 291 263 269 293 287 278 271 264 271 267 269 267 266 269 277 276 279 304 302 303 296 290 292 291 288 287
278 280 282 282 284 283 281 278 281 280 282 285 288 286 281 280 276 279 278 275 274 273 272 272 272 272 272 276 275 269 276 283 278 287 290 295 299 300 298 295 294 292 289 285
275 277 279 280 282 284 285 288 289 280 274 285 287 295 304 324 320 262 270 261 259 262 270 271 272 276 275 271 274 282 291 298 294 297 300 295 295 298 291 286 290 292 290 288
272 274 275 277 278 279 279 283 289 282 285 286 297 297 312 347 331 305 304 309 301 288 271 267 272 275 273 274 276 287 303 305 302 299 302 292 294 292 294 292 290 294 300 304
268 268 269 271 273 275 277 280 279 277 275 273 270 268 277 294 291 284 287 283 269 269 278 281 290 293 285 271 289 299 302 302 300 299 292 288 288 292 296 294 292 291 298 298
267 269 269 270 271 273 277 273 270 270 258 255 258 266 281 281 284 281 282 275 276 273 273 274 284 283 272 289 296 294 294 298 297 289 291 290 289 292 297 300 303 302 301 301
267 270 270 273 274 276 275 273 272 266 261 243 259 269 271 279 280 278 279 278 276 266 269 271 267 270 290 296 294 299 299 296 294 291 290 284 284 290 296 302 307 306 309 310
269 270 270 271 274 276 275 274 254 247 241 267 280 277 283 280 275 279 265 262 270 267 268 257 259 272 308 300 302 301 303 299 287 283 287 289 291 295 297 301 301 307 310 308
267 268 270 271 270 268 253 236 222 232 252 261 281 285 275 273 274 271 262 252 245 253 259 237 248 280 286 294 297 298 296 285 267 266 262 262 271 279 283 289 298 304 304 297
260 255 266 270 250 225 221 219 217 216 258 280 288 277 274 276 278 248 241 240 248 243 222 236 263 264 290 290 285 284 283 271 269 273 274 273 273 285 301 309 308 305 302 299
249 244 244 239 227 222 233 252 258 263 268 274 277 278 284 285 276 263 256 259 243 244 256 278 285 291 292 289 281 260 257 264 266 266 259 250 270 287 298 325 334 326 319 320
244 230 235 236 237 234 236 236 243 271 280 285 283 285 282 280 258 254 257 257 252 268 283 280 271 281 277 268 267 252 250 263 263 251 270 342 328 322 337 338 336 337 339 338
240 232 231 237 240 245 246 251 255 260 263 270 280 282 275 268 254 250 249 259 265 260 279 251 260 251 267 277 296 296 299 312 330 330 330 322 313 308 306 311 320 322 317 316
240 246 250 251 253 256 249 258 254 258 275 286 291 277 270 266 250 247 248 258 270 283 280 278 305 287 289 312 306 303 304 313 322 314 312 307 306 304 303 295 295 298 303 305